FW5669 Weather Reports


time (UTC)temp
C
wind
direction
speed
KPH
gust
KPH
rain 1hr
cm
rain 24hr
cm
rain mn
cm
humidity
%
barometer
mb
20260901140108 12 56 4.8 14.5 0.00 0.00 0.00 82 1015.3
20260901140002 12 53 3.2 14.5 0.00 0.00 0.00 82 1015.3
20260901134701 12 114 3.2 9.7 0.00 0.00 0.00 83 1015.3
20260901133107 12 27 4.8 14.5 0.00 0.00 0.00 83 1015.1
20260901133002 12 69 4.8 14.5 0.00 0.00 0.00 83 1015.1
20260901131600 12 66 3.2 12.9 0.00 0.00 0.00 83 1014.9
20260901131501 12 60 3.2 12.9 0.00 0.00 0.00 83 1015.0
20260901130002 12 146 3.2 11.3 0.00 0.00 0.00 83 1014.8
20260901124502 12 85 1.6 11.3 0.00 0.00 0.00 83 1014.9
20260901123004 12 21 4.8 14.5 0.00 0.00 0.00 83 1015.1
20260901121503 12 52 3.2 9.7 0.00 0.00 0.00 83 1015.1
20260901120002 12 52 1.6 9.7 0.00 0.00 0.00 84 1014.7
20260901114502 12 16 1.6 8.0 0.00 0.00 0.00 84 1014.6
20260901113003 12 152 0.0 4.8 0.00 0.00 0.00 85 1014.4
20260901111603 12 102 1.6 4.8 0.00 0.00 0.00 85 1014.3
20260901110100 12 20 3.2 8.0 0.00 0.00 0.00 85 1014.4
20260901110004 12 118 3.2 8.0 0.00 0.00 0.00 85 1014.4
20260901104609 12 351 3.2 12.9 0.00 0.00 0.00 84 1014.1
20260901103102 12 21 3.2 9.7 0.00 0.00 0.00 84 1014.1
20260901101503 12 41 1.6 16.1 0.00 0.00 0.00 84 1014.0
20260901100101 12 36 3.2 9.7 0.00 0.00 0.00 84 1014.0
20260901100002 12 42 3.2 9.7 0.00 0.00 0.00 84 1014.1
20260901094503 12 38 1.6 11.3 0.00 0.00 0.00 83 1014.2
20260901093102 12 75 1.6 8.0 0.00 0.00 0.00 82 1014.2
20260901091503 12 66 0.0 11.3 0.00 0.00 0.00 82 1014.2
20260901090006 12 65 1.6 6.4 0.00 0.00 0.00 81 1014.1
20260901084501 12 64 4.8 8.0 0.00 0.00 0.00 81 1014.1
20260901083003 12 46 1.6 6.4 0.00 0.00 0.00 81 1014.2
20260901081504 12 330 4.8 12.9 0.00 0.00 0.00 81 1014.0
20260901080002 12 79 1.6 16.1 0.00 0.00 0.00 81 1014.2
20260901074502 13 46 1.6 11.3 0.00 0.00 0.00 80 1014.2
20260901073006 13 29 4.8 14.5 0.00 0.00 0.00 79 1014.3
20260901071503 13 55 0.0 8.0 0.00 0.00 0.00 78 1014.0
20260901070003 13 96 3.2 6.4 0.00 0.00 0.00 77 1013.9
20260901064504 14 100 3.2 8.0 0.00 0.00 0.00 76 1013.8
20260901063010 14 70 1.6 6.4 0.00 0.00 0.00 74 1013.7
20260901061503 15 68 1.6 8.0 0.00 0.00 0.00 74 1013.5
20260901060003 15 106 1.6 12.9 0.00 0.00 0.00 72 1013.5
20260901054502 15 73 3.2 11.3 0.00 0.00 0.00 72 1013.4
20260901053003 15 85 1.6 11.3 0.00 0.00 0.00 71 1013.5
20260901051505 16 57 1.6 9.7 0.00 0.00 0.00 71 1013.5
20260901050004 16 43 1.6 9.7 0.00 0.00 0.00 69 1013.5
20260901044505 16 44 3.2 11.3 0.00 0.00 0.00 69 1013.4
20260901043003 16 82 1.6 9.7 0.00 0.00 0.00 69 1013.3
20260901041502 17 56 1.6 9.7 0.00 0.00 0.00 68 1013.1
20260901040002 17 46 1.6 4.8 0.00 0.00 0.00 67 1013.1
20260901034502 17 52 0.0 4.8 0.00 0.00 0.00 65 1012.9
20260901033008 18 16 1.6 9.7 0.00 0.00 0.00 63 1012.7
20260901031502 18 115 0.0 6.4 0.00 0.00 0.00 61 1012.4
20260901030003 19 24 0.0 3.2 0.00 0.00 0.00 58 1012.4
20260901024502 20 148 1.6 8.0 0.00 0.00 0.00 56 1012.2
20260901023004 20 158 0.0 4.8 0.00 0.00 0.00 55 1012.2
20260901021505 21 162 0.0 4.8 0.00 0.00 0.00 53 1011.9
20260901020004 22 172 1.6 4.8 0.00 0.00 0.00 52 1011.8
20260901014506 22 160 1.6 4.8 0.00 0.00 0.00 49 1011.8
20260901013003 23 110 1.6 3.2 0.00 0.00 0.00 46 1011.9
20260901011502 23 21 0.0 4.8 0.00 0.00 0.00 45 1011.7
20260901010002 24 33 1.6 6.4 0.00 0.00 0.00 44 1011.8
20260901004502 24 122 1.6 4.8 0.00 0.00 0.00 42 1011.8
20260901003002 25 173 1.6 4.8 0.00 0.00 0.00 41 1011.9
20260901001503 25 102 1.6 6.4 0.00 0.00 0.00 40 1011.8
20260901000003 25 134 1.6 8.0 0.00 0.00 0.00 38 1012.0
20260831234503 25 154 1.6 6.4 0.00 0.00 0.00 38 1011.8
20260831233002 25 87 1.6 6.4 0.00 0.00 0.00 38 1012.2
20260831231502 25 172 1.6 9.7 0.00 0.00 0.00 38 1012.4
20260831230003 25 85 3.2 11.3 0.00 0.00 0.00 36 1012.5
20260831224504 25 201 1.6 8.0 0.00 0.00 0.00 38 1012.6
20260831223004 26 185 3.2 9.7 0.00 0.00 0.00 36 1012.7
20260831221504 26 183 3.2 8.0 0.00 0.00 0.00 36 1012.8
20260831220002 26 113 3.2 9.7 0.00 0.00 0.00 37 1012.7
20260831214502 25 179 3.2 8.0 0.00 0.00 0.00 38 1012.7
20260831213004 25 190 3.2 9.7 0.00 0.00 0.00 37 1012.8
20260831211503 25 192 1.6 8.0 0.00 0.00 0.00 39 1012.9
20260831210100 25 89 3.2 8.0 0.00 0.00 0.00 38 1012.9
20260831210002 25 94 3.2 8.0 0.00 0.00 0.00 39 1012.9
20260831204502 25 150 3.2 6.4 0.00 0.00 0.00 40 1013.1
20260831203002 25 192 3.2 6.4 0.00 0.00 0.00 41 1013.2
20260831201502 25 137 1.6 6.4 0.00 0.00 0.00 42 1013.1
20260831200007 25 185 3.2 8.0 0.00 0.00 0.00 43 1013.1
20260831194502 24 204 1.6 6.4 0.00 0.00 0.00 44 1013.3
20260831193004 23 204 1.6 11.3 0.00 0.00 0.00 45 1013.3
20260831191503 23 158 1.6 6.4 0.00 0.00 0.00 45 1013.3
20260831190002 24 193 3.2 6.4 0.00 0.00 0.00 45 1013.3
20260831184602 23 159 3.2 8.0 0.00 0.00 0.00 46 1013.2
20260831183003 23 180 3.2 8.0 0.00 0.00 0.00 47 1013.3
20260831181501 23 147 1.6 8.0 0.00 0.00 0.00 46 1013.1
20260831180006 23 116 0.0 9.7 0.00 0.00 0.00 46 1013.1
20260831174502 23 162 1.6 4.8 0.00 0.00 0.00 46 1013.0
20260831173003 23 251 0.0 6.4 0.00 0.00 0.00 47 1013.0
20260831171502 23 160 1.6 6.4 0.00 0.00 0.00 48 1013.1
20260831170004 23 192 3.2 4.8 0.00 0.00 0.00 45 1013.0
20260831164603 23 17 0.0 6.4 0.00 0.00 0.00 40 1012.9
20260831164502 23 16 1.6 6.4 0.00 0.00 0.00 40 1013.0
20260831163002 22 168 0.0 3.2 0.00 0.00 0.00 42 1012.9
20260831161608 22 209 0.0 4.8 0.00 0.00 0.00 45 1012.9
20260831160104 21 31 1.6 4.8 0.00 0.00 0.00 45 1013.0
20260831160002 21 35 1.6 4.8 0.00 0.00 0.00 46 1013.0
20260831154503 20 59 1.6 4.8 0.00 0.00 0.00 49 1013.0
20260831153003 19 44 1.6 4.8 0.00 0.00 0.00 52 1013.0
20260831151502 18 66 1.6 3.2 0.00 0.00 0.00 56 1013.1
20260831150002 16 58 0.0 3.2 0.00 0.00 0.00 60 1013.0
20260831144600 15 29 0.0 3.2 0.00 0.00 0.00 64 1013.0
20260831143119 15 312 0.0 1.6 0.00 0.00 0.00 65 1012.9
20260831141608 14 312 0.0 1.6 0.00 0.00 0.00 65 1012.9